Find Starlink 32909

NORAD ID: 62894 Int'l Des: 2025-024 Owner: SPXS Country: US Constellation: starlink operational
LEOCIRCULAR

リアルタイム位置

3D地球を読み込み中...

Starlink 32909について

説明を読み込み中...

次回通過

Passes for default location (London). Set your location on the main map for personalized predictions.

高度履歴

Loading altitude history...

軌道要素

1 62894U 25024R 26127.01946814 .00023290 00000-0 85353-3 0 9996
2 62894 43.0050 356.2132 0001507 255.0019 105.0666 15.27566399 71184
Epoch: May 7, 2026 • Age: 9 hours

現在のステータス

高度 494.5 km
速度 7.62 km/s
衛星直下点 -40.67°S, 81.05°W
打ち上げ日 Feb 4, 2025
運用期間 1.2 years
タイプ internet

技術仕様

分類 Payload
質量 730.00 kg
乾燥質量 700.00 kg
総質量 730.00 kg
長さ 0.30 m
直径 4.10 m
スパン 29.00 m
形状 Box + pan
製造者 SPXS
バスタイプ Starlink V2M
フェーズステータス In Orbit
所有者/国 SPXS/US

Most Searched